GFSSW_sfc_temp_276.txt.gz
Temp
60 60 61 61 61 61 61 61 61 61 61 61 61 61 61 61 62 63 52 57 60 63 64 66 67 64 65 58 59 58 44 43 47 49 50 57 52 56 58 52 55 59 57 62 65
59 59 60 60 60 61 61 61 61 61 60 60 60 60 61 61 61 56 61 63 63 63 63 59 57 60 54 55 53 49 42 45 51 51 48 51 51 51 49 51 52 56 61 63 62
59 59 59 59 60 60 60 60 60 60 60 60 60 60 60 60 58 55 63 63 63 65 65 62 63 59 52 54 50 48 43 50 52 52 51 49 48 53 49 45 51 51 55 58 57
59 58 59 59 59 60 60 60 60 60 60 60 60 60 60 60 44 59 63 63 64 66 64 61 60 53 49 46 51 43 51 51 51 52 49 46 50 47 49 50 56 55 57 56 54
58 58 58 58 59 60 60 60 60 60 60 60 60 60 59 55 51 65 63 63 65 63 58 56 52 51 46 48 48 44 48 51 51 50 49 51 46 46 48 53 55 56 56 54 54
58 58 58 58 58 59 59 60 60 60 60 60 61 60 56 47 62 65 63 61 59 59 56 55 51 52 49 47 45 46 47 47 50 49 49 46 45 46 48 53 53 55 53 54 54
58 57 57 58 58 59 59 59 60 59 60 60 61 62 55 50 64 64 63 58 59 57 54 55 55 52 50 46 48 47 41 46 49 48 46 47 40 42 49 54 51 53 55 53 51
57 57 57 58 58 58 59 59 59 59 60 60 60 60 49 61 62 62 62 60 61 60 57 57 56 52 48 49 47 42 40 33 47 48 46 43 31 47 51 49 49 50 51 50 49
57 57 57 58 58 58 58 58 58 60 60 61 58 55 48 60 56 60 61 53 56 58 57 59 54 47 48 39 36 35 23 30 38 48 46 41 34 45 52 51 46 46 46 46 47
57 57 57 57 58 58 58 58 59 59 60 64 62 50 54 50 55 57 61 57 52 52 51 50 47 39 39 33 21 25 26 32 33 42 44 39 38 45 49 45 42 41 42 44 45
58 57 57 57 58 58 57 56 53 50 53 45 47 48 52 55 57 56 58 54 53 50 38 42 35 31 37 37 38 37 32 29 36 44 38 37 38 41 45 41 39 38 41 42 44
58 58 57 57 58 58 58 51 46 47 40 51 51 51 53 53 47 53 57 47 36 32 40 34 31 42 43 42 38 34 29 27 36 43 37 34 34 41 44 41 39 38 39 41 43
58 57 57 57 57 56 51 48 53 53 39 47 50 49 49 50 47 47 51 47 32 30 30 29 40 44 40 35 32 32 28 27 29 35 35 33 28 36 41 42 42 42 42 43 42
58 57 56 57 55 54 48 53 54 52 32 39 44 46 49 49 42 52 52 46 41 28 33 32 43 39 34 32 35 22 39 35 30 21 15 32 13 30 36 37 40 40 39 40 39
57 56 56 57 53 49 48 54 54 47 27 39 43 52 50 44 44 46 52 47 39 32 31 31 33 32 29 36 38 30 38 33 31 18 19 23 14 27 37 33 34 36 39 39 38
56 55 55 55 51 48 51 49 48 34 27 31 42 39 37 43 45 47 46 48 46 37 35 32 40 35 37 40 40 40 31 31 28 19 14 16 15 20 25 28 32 36 36 37 36
55 54 53 52 47 50 49 46 34 30 34 31 33 38 33 33 38 40 39 38 31 24 25 32 31 37 39 32 37 31 21 13 11 11 13 16 17 22 28 33 33 32 34 34 34
52 51 47 47 48 48 45 35 31 34 31 38 37 37 32 34 32 33 34 31 36 31 25 18 19 26 37 31 24 26 19 11 1 9 15 17 12 24 33 35 34 34 34 33 31
51 46 44 44 47 47 39 32 33 33 39 35 36 30 30 32 30 29 29 32 34 30 21 20 22 34 35 36 32 25 19 26 11 12 12 15 23 29 30 24 30 30 30 28 28
46 43 40 46 46 43 33 35 35 39 41 37 31 32 24 26 28 27 30 34 33 33 30 25 16 27 31 34 31 25 29 13 14 6 4 13 13 18 15 16 22 25 25 26 28
45 39 42 46 44 36 33 34 34 40 41 34 33 27 30 26 28 29 29 32 36 34 33 27 19 22 29 19 21 22 17 17 16 18 11 8 13 20 16 16 19 21 26 24 25
44 33 43 45 33 32 32 34 35 35 39 35 33 33 29 31 28 24 28 30 36 31 26 30 25 14 20 35 36 29 21 24 12 9 18 18 18 24 20 19 16 20 25 27 27
37 35 43 42 32 32 32 32 33 33 33 32 31 35 36 27 24 31 30 36 35 31 28 30 19 10 19 24 29 21 27 27 21 22 12 11 15 20 20 17 17 19 20 26 27
38 32 33 35 35 34 32 32 30 33 33 34 32 35 32 27 30 25 30 33 35 32 37 35 27 16 14 15 17 17 24 26 22 9 14 19 23 30 22 19 16 19 19 22 27
40 34 36 31 32 34 36 34 31 29 32 34 28 30 28 24 26 22 29 29 33 35 32 29 13 22 24 23 23 23 21 21 19 22 11 23 14 27 29 28 17 19 17 22 22
35 35 35 35 35 34 35 33 33 33 30 28 26 32 32 26 30 26 30 30 28 30 29 30 12 15 12 25 26 20 25 23 21 20 18 22 21 30 28 15 15 17 17 18 22
40 40 41 37 34 33 33 34 33 34 34 36 32 32 30 32 35 35 35 33 31 28 28 22 15 8 10 19 15 12 14 18 18 18 16 11 21 16 15 14 14 15 14 16 19

GFSSW_sfc_temp_279.txt.gz
Temp
60 60 61 61 61 61 62 62 61 61 61 61 61 61 61 61 62 57 48 56 59 64 64 59 60 58 57 52 52 50 37 34 38 40 41 47 45 49 50 45 47 51 50 56 57
60 60 60 60 61 61 61 61 61 61 60 60 61 61 61 61 55 50 61 64 64 65 57 54 52 55 48 49 47 42 34 37 42 39 38 43 43 43 44 44 44 49 55 57 57
59 59 59 60 60 61 61 61 60 60 60 60 61 60 60 58 51 49 64 64 65 64 58 57 56 54 46 47 44 41 37 44 43 44 45 44 43 45 42 40 43 44 49 53 52
59 59 59 59 60 60 60 60 60 60 60 60 61 61 60 54 39 54 64 64 65 61 58 55 52 46 41 40 46 39 46 46 46 47 45 42 45 42 43 43 50 49 49 51 51
58 58 58 59 59 60 60 60 60 60 60 61 61 61 55 48 46 61 63 61 59 57 52 50 46 44 39 42 44 39 42 46 47 46 45 47 42 41 43 47 50 52 54 51 50
58 58 58 58 59 59 60 60 60 60 60 61 61 61 51 41 58 61 59 57 56 53 50 49 46 48 43 42 39 41 42 43 45 46 46 43 40 42 44 48 49 51 51 51 48
58 58 58 58 58 59 59 59 60 60 60 61 61 58 49 46 58 58 59 54 55 53 49 51 49 46 44 40 44 43 37 42 43 45 43 43 38 37 45 48 48 49 51 47 47
58 57 57 58 58 58 59 59 59 60 60 61 61 54 43 57 54 58 57 55 57 57 53 53 52 47 43 44 42 38 35 28 41 43 44 41 29 42 47 45 45 46 45 46 47
57 57 57 58 58 58 59 59 59 60 61 61 54 50 42 59 53 56 54 50 52 54 52 58 49 42 42 33 28 29 17 26 33 44 42 38 33 42 46 46 41 40 41 44 45
58 57 57 58 58 58 59 59 59 58 59 60 58 44 49 46 51 54 54 54 49 48 47 45 40 30 28 24 15 18 19 28 27 37 39 35 34 43 43 43 39 38 39 41 42
58 58 58 58 58 59 55 50 46 46 47 41 43 44 47 51 53 51 53 51 48 45 31 38 28 21 30 32 34 32 27 24 31 39 34 34 35 38 41 39 37 36 36 39 40
58 58 57 57 58 59 52 44 43 44 36 47 48 47 50 49 44 48 53 42 33 26 34 30 23 36 39 38 33 29 21 21 31 38 34 30 30 37 39 38 38 37 35 38 39
58 58 57 57 58 51 45 44 49 47 33 43 46 45 45 47 43 43 47 43 30 24 24 24 35 41 37 32 28 27 21 22 26 30 31 27 24 32 37 39 40 39 37 37 37
58 57 56 57 52 49 43 49 49 46 26 36 40 43 46 45 40 50 49 42 35 25 28 27 38 36 31 29 30 18 33 31 28 17 11 28 11 26 32 34 37 36 34 34 33
57 56 55 58 49 47 46 48 48 41 21 37 39 49 46 40 42 42 48 42 34 28 25 27 30 30 26 32 34 29 34 30 28 12 17 18 11 22 31 30 30 32 35 33 33
56 55 56 54 46 45 47 45 43 31 21 28 38 36 33 39 41 43 42 43 42 33 30 27 37 32 33 36 36 37 27 26 23 12 5 12 13 19 24 27 28 31 32 33 32
55 54 52 51 44 46 45 41 30 22 32 27 29 34 30 30 35 36 35 33 26 19 16 26 28 33 36 29 34 27 14 4 5 4 9 9 14 20 26 29 28 28 29 30 32
53 50 47 46 46 46 44 35 26 28 32 34 33 33 28 30 30 30 30 25 32 27 14 11 16 21 34 29 21 23 15 7 -2 3 8 8 9 21 29 31 31 30 30 30 29
52 45 43 42 46 44 38 31 26 33 35 32 32 22 21 30 26 24 25 25 29 25 18 12 17 31 33 34 29 20 12 24 5 2 7 9 17 28 29 22 26 27 28 26 28
45 43 39 45 45 43 33 32 33 36 39 34 28 28 17 21 25 20 25 31 30 30 27 22 13 21 28 32 28 22 26 11 8 -1 -2 6 5 19 16 17 20 24 22 23 25
45 38 41 45 43 35 32 33 34 38 40 34 29 23 28 20 24 21 26 31 32 30 31 21 14 18 27 15 16 15 12 13 12 14 3 1 10 18 18 15 16 20 22 21 21
44 34 41 44 33 32 32 34 36 35 38 35 31 30 24 25 24 21 25 28 34 28 24 29 21 12 17 30 32 24 17 20 10 5 11 13 17 15 16 17 16 20 21 22 17
36 35 42 41 32 32 32 32 31 33 33 31 27 32 32 22 22 28 28 34 34 31 27 29 14 5 16 22 27 19 24 24 16 20 13 5 12 16 9 11 16 17 21 18 19
37 32 33 34 34 33 32 31 29 32 31 32 31 33 29 22 29 23 29 32 34 32 38 34 25 15 13 14 11 14 21 24 19 4 9 13 19 28 27 15 15 16 16 12 13
39 34 34 29 31 33 34 34 30 30 30 32 27 29 26 23 23 21 28 28 31 35 31 26 14 20 21 20 16 21 20 18 16 20 11 22 11 24 28 22 26 17 7 15 14
36 34 34 33 34 32 35 32 33 32 28 27 24 29 28 21 29 26 28 29 26 28 27 28 10 13 9 23 23 17 23 21 19 20 18 21 21 31 31 9 11 14 6 14 8
40 40 40 36 29 31 32 33 32 34 33 34 30 29 27 30 32 32 33 32 30 27 25 22 13 7 5 17 13 13 14 14 14 10 13 8 19 7 13 10 10 12 9 12 8

GFSSW_sfc_temp_285.txt.gz
Temp
60 60 60 61 61 61 61 61 61 61 60 61 61 61 61 61 61 54 48 56 59 65 62 54 55 54 52 48 48 45 36 33 34 36 36 41 40 42 44 40 43 46 44 49 52
60 60 60 60 61 61 61 61 61 61 61 61 61 61 61 61 53 49 60 65 64 64 54 51 50 51 44 44 43 39 33 35 36 35 35 37 37 38 38 38 40 43 48 50 50
59 59 60 60 60 61 61 61 61 60 61 61 61 61 61 58 50 48 63 64 64 61 53 51 50 49 42 42 40 37 35 40 38 40 40 39 37 39 36 36 41 42 46 47 46
59 59 59 59 60 60 61 61 60 60 60 61 61 61 60 53 40 52 63 63 63 58 54 51 48 42 38 37 41 36 41 41 42 43 41 38 40 37 39 42 46 46 46 47 46
58 58 59 59 59 60 60 60 60 60 60 61 61 61 54 46 44 58 61 59 56 53 48 47 43 41 37 38 40 37 38 42 42 42 41 42 38 37 39 44 45 45 47 45 45
58 58 58 59 59 60 60 60 60 60 60 61 61 61 50 41 55 56 55 54 52 49 47 46 43 43 41 39 37 38 38 39 41 41 42 39 36 37 42 42 44 46 46 46 45
58 58 58 58 59 59 60 60 60 60 60 61 62 57 48 45 54 54 54 51 51 50 46 47 45 43 41 38 41 39 36 38 39 40 39 40 36 35 40 42 43 45 45 44 44
58 57 58 58 58 59 60 60 60 60 60 61 62 52 42 55 52 54 54 51 53 53 50 50 49 46 42 42 39 34 33 29 38 39 40 39 30 39 42 39 40 41 42 42 44
58 57 58 58 58 58 59 60 59 60 61 61 52 48 41 58 50 53 52 49 50 51 50 56 48 39 39 32 28 27 19 26 32 38 36 35 30 39 38 41 39 39 39 40 41
58 58 58 58 58 59 59 60 59 58 57 57 55 44 47 44 48 51 51 51 46 46 46 43 37 29 27 24 19 21 21 27 26 33 34 30 31 38 40 38 36 36 37 38 40
58 58 58 58 58 59 53 49 46 46 46 40 41 41 44 48 49 49 51 48 45 41 31 35 28 23 29 31 31 29 26 24 28 34 31 29 29 35 39 34 32 32 34 36 36
59 58 58 57 58 57 49 43 41 42 36 44 44 44 46 45 41 46 50 41 34 26 33 28 23 33 36 34 32 28 19 19 29 32 30 28 28 34 35 34 33 33 32 35 35
58 58 57 57 58 50 44 42 47 44 34 41 43 42 43 45 40 42 45 39 29 23 22 24 32 38 34 31 27 27 20 19 25 29 28 24 23 28 32 33 34 34 33 32 33
58 58 57 57 52 46 42 46 47 44 27 36 39 41 43 42 38 47 46 41 33 25 27 27 34 34 31 29 30 18 31 30 27 17 11 25 12 24 28 31 33 33 31 31 31
57 56 56 57 47 43 43 45 44 40 19 36 38 46 44 38 39 40 45 40 33 28 26 27 30 30 26 32 32 28 31 28 24 8 15 14 9 21 26 27 30 31 31 31 31
56 56 56 51 44 42 44 42 41 28 19 28 36 35 33 37 38 40 39 42 38 32 30 27 34 32 32 33 33 32 25 23 18 8 4 8 10 18 23 27 28 29 31 31 31
54 53 50 50 43 44 42 40 27 22 31 27 29 34 30 30 34 35 34 32 26 20 14 26 27 32 33 28 31 26 11 5 6 2 7 2 10 20 26 29 29 30 31 30 30
53 50 46 46 42 42 40 32 17 21 21 34 33 32 28 30 30 29 29 25 29 26 12 11 17 21 32 29 21 20 14 8 1 3 6 5 8 20 27 30 30 30 29 29 28
53 45 42 43 45 43 36 22 23 25 34 32 31 22 21 29 26 23 24 23 29 26 18 13 17 30 32 32 28 19 11 21 3 -2 0 5 13 25 27 21 26 26 28 27 27
47 43 40 44 45 44 33 30 27 34 36 34 27 28 17 19 25 19 23 29 29 29 26 22 14 21 27 30 27 20 24 12 7 1 -4 2 -3 14 16 20 21 23 24 25 25
46 39 40 42 42 36 31 29 32 37 37 32 29 24 30 24 22 17 23 30 29 27 29 19 14 18 27 16 15 20 10 12 10 12 2 -2 8 14 18 17 18 20 23 22 22
44 34 39 40 34 32 32 33 36 34 37 34 33 34 31 26 21 16 24 27 31 27 25 28 21 10 18 25 27 22 14 19 10 5 6 9 13 17 15 10 5 17 21 22 18
37 35 39 41 30 32 33 33 30 32 32 32 30 33 31 24 22 27 27 33 32 30 26 28 13 6 18 22 24 18 23 23 16 18 7 5 16 10 4 11 12 13 21 21 19
37 32 33 34 34 32 32 33 33 31 31 32 31 32 30 22 28 23 27 31 33 32 37 34 23 16 16 16 11 15 22 25 23 7 15 17 23 29 31 28 24 14 17 17 13
38 34 33 29 32 32 34 34 32 30 29 30 26 30 27 21 22 19 27 29 31 35 32 27 11 17 17 18 13 20 21 22 18 23 15 24 14 26 30 28 28 12 11 11 13
36 34 34 29 33 32 35 32 33 33 28 27 23 30 29 24 29 25 28 28 27 28 27 27 11 11 6 22 22 17 22 23 21 23 21 22 21 31 33 28 15 18 8 13 10
41 40 38 37 32 30 32 33 31 32 33 34 30 28 26 30 33 32 32 32 31 27 26 22 16 11 7 13 11 13 20 20 15 11 20 15 24 26 24 15 9 16 8 14 13

GFSSW_sfc_temp_288.txt.gz
Temp
60 60 61 61 61 61 61 61 61 61 61 61 61 61 61 61 61 52 47 55 58 64 62 53 55 53 51 46 46 43 36 32 34 35 35 38 38 40 41 38 41 43 43 48 51
60 60 60 61 61 61 61 61 61 61 61 61 61 61 61 61 51 48 59 64 64 64 53 50 49 50 44 43 42 39 33 35 35 35 34 36 36 36 37 37 39 40 45 48 49
60 60 60 60 60 61 61 61 60 61 61 61 61 61 61 57 48 48 63 64 63 60 52 50 50 48 42 42 40 36 35 38 37 38 39 38 35 38 35 35 39 40 45 46 45
59 59 59 60 60 61 61 61 60 61 61 61 61 61 60 52 40 51 62 62 62 56 53 50 48 42 38 37 41 36 40 40 41 41 39 36 38 36 38 40 43 45 43 44 45
58 58 59 59 60 60 61 61 60 60 60 61 61 61 54 47 44 56 60 57 55 53 47 46 43 40 37 38 39 37 37 40 40 41 39 40 38 37 38 42 44 44 45 44 44
58 58 58 59 59 60 60 61 60 60 60 61 61 61 49 41 54 55 53 54 51 50 46 45 42 43 41 38 37 37 37 37 39 40 40 37 35 36 40 40 41 44 45 45 44
58 58 58 58 59 60 60 60 60 60 60 61 62 56 48 44 53 53 53 51 51 49 45 46 45 45 41 37 40 38 35 37 38 39 38 38 35 33 38 41 40 42 44 44 43
58 58 58 58 58 59 60 60 60 60 60 61 61 52 42 54 51 53 53 51 53 52 49 49 49 45 41 41 38 33 32 29 35 38 38 38 32 37 39 36 39 39 41 41 42
58 58 58 58 58 59 59 59 59 60 61 60 51 47 40 57 50 51 51 48 49 50 50 54 47 38 39 33 28 27 20 28 32 37 34 33 31 37 37 38 37 37 36 39 39
58 58 58 58 58 58 59 59 59 58 56 57 54 44 47 43 48 50 50 50 46 46 45 43 37 29 27 24 19 21 21 28 26 32 32 29 30 38 38 36 35 36 34 36 37
59 58 58 58 58 59 53 49 46 46 45 39 40 40 44 47 48 48 49 47 45 41 32 35 29 24 27 30 30 28 26 24 28 32 30 28 29 35 39 34 31 31 32 34 36
59 58 58 58 58 57 48 42 40 42 37 43 43 43 45 44 41 45 50 40 35 27 33 28 23 31 35 34 32 28 19 19 29 31 29 27 27 34 33 31 32 32 31 33 34
58 58 57 57 57 49 43 41 46 43 34 40 41 40 41 44 38 41 44 38 30 25 23 26 31 36 34 31 28 26 20 19 25 28 26 22 22 27 32 33 32 32 31 31 34
58 57 57 57 51 45 41 46 45 43 26 35 38 40 42 41 37 45 44 39 33 26 27 27 34 34 31 29 30 19 30 29 25 16 11 24 12 25 26 29 32 32 30 31 31
57 56 56 56 46 42 43 44 43 41 20 36 37 45 43 38 38 39 43 39 32 28 27 28 29 30 26 32 32 27 30 27 22 8 13 13 8 22 25 28 30 31 31 31 31
56 55 56 50 44 42 43 42 41 29 19 29 36 35 33 37 37 39 38 41 37 32 30 26 32 31 31 33 32 31 24 22 16 5 3 6 8 18 24 26 27 28 30 31 31
54 52 49 47 42 42 41 39 28 21 31 28 29 34 30 30 34 34 33 31 27 21 17 26 27 31 33 28 30 26 12 6 7 3 8 0 8 21 26 27 28 30 31 31 30
53 50 46 44 42 42 40 31 18 20 20 33 33 32 28 30 29 29 30 24 28 25 11 12 17 21 32 28 21 20 14 8 2 4 6 3 8 22 27 29 28 29 28 29 28
53 44 41 42 43 42 37 22 25 25 33 32 32 23 22 29 26 23 24 23 28 25 18 12 16 29 31 30 27 19 12 20 2 -5 -1 5 13 25 28 20 24 26 27 27 28
47 44 39 42 42 42 32 30 26 33 35 33 26 27 17 19 25 19 24 29 29 29 25 21 14 20 26 29 26 19 24 11 6 2 -2 3 -3 20 19 16 20 23 20 24 27
46 40 40 41 41 36 28 23 29 37 36 32 29 21 27 21 23 19 24 30 29 27 29 19 14 17 26 18 17 20 11 10 10 11 3 -2 11 17 18 16 17 19 22 20 22
44 33 39 40 34 32 32 33 35 33 34 33 31 32 27 27 23 18 25 28 31 27 24 28 20 11 18 25 27 21 14 18 11 5 4 9 14 22 16 8 3 17 20 21 20
37 36 40 39 29 30 33 33 30 30 30 30 28 32 29 20 21 27 27 34 32 31 26 28 14 7 18 21 24 17 21 21 15 17 7 6 18 16 5 8 14 15 19 21 18
36 32 34 34 34 33 32 32 32 33 32 32 32 32 30 24 27 23 28 32 33 32 37 34 24 17 17 18 12 15 19 22 19 9 16 18 23 31 33 31 30 22 16 15 16
38 34 32 29 32 32 34 33 27 32 30 30 25 29 26 24 21 17 27 28 30 34 32 30 15 19 19 19 14 19 17 22 17 19 15 25 19 28 31 32 32 17 16 19 17
35 32 34 30 32 32 34 32 33 34 31 28 23 29 29 21 29 26 27 28 27 27 27 27 11 11 7 21 22 16 21 22 21 21 21 23 21 31 33 30 22 21 15 17 16
35 40 38 35 32 30 30 33 33 32 33 35 30 30 26 30 33 34 33 32 32 27 25 22 14 9 7 12 11 12 18 21 15 14 17 11 24 29 25 20 14 18 10 17 17

GFSSW_sfc_temp_291.txt.gz
Temp
61 61 61 61 61 61 62 62 61 61 61 61 62 62 62 61 61 52 46 55 58 64 61 54 55 53 52 48 48 47 40 37 40 39 42 44 45 47 47 47 48 51 50 54 53
60 61 61 61 61 61 61 61 61 61 61 61 62 62 62 61 52 48 59 64 64 64 53 51 50 51 45 45 44 42 37 40 40 41 40 42 42 43 45 44 45 48 51 52 52
60 60 60 61 61 61 61 61 61 61 61 61 61 62 61 57 48 48 63 63 63 59 52 51 51 49 43 44 42 40 38 41 41 42 43 41 40 43 41 41 44 45 48 50 51
59 59 60 60 61 61 61 61 61 61 61 61 61 61 61 52 40 51 62 62 61 56 53 50 48 43 40 39 42 39 41 42 42 43 41 40 42 41 40 45 49 48 49 50 49
59 59 59 59 60 61 61 61 61 60 61 61 61 61 54 46 44 56 59 57 54 52 47 47 44 42 39 40 41 39 39 42 42 42 41 42 40 40 40 45 46 46 46 46 46
58 58 59 59 60 60 61 61 61 60 61 61 62 61 49 42 54 54 53 53 51 50 46 46 44 44 41 39 39 39 39 40 41 41 41 39 39 39 43 43 43 45 47 47 46
58 58 58 59 59 60 60 60 61 60 60 61 62 56 48 44 52 53 53 50 51 49 46 47 46 45 43 38 41 39 38 38 38 40 39 39 36 34 41 44 44 44 45 45 46
58 58 58 58 59 59 60 60 60 60 60 61 61 51 42 53 52 53 52 51 53 52 50 49 49 45 42 41 39 35 36 33 38 39 40 40 36 40 42 41 42 42 42 43 44
58 58 58 58 58 59 59 59 60 61 61 60 50 46 40 57 50 51 51 48 49 50 50 54 47 40 40 35 31 30 24 31 34 37 36 37 34 39 40 40 39 40 40 40 41
59 58 58 58 58 58 59 59 59 58 55 56 52 43 45 42 46 49 50 50 46 46 46 43 38 32 30 28 24 24 25 30 29 34 34 31 32 39 40 38 38 38 38 37 39
59 59 58 58 58 58 52 49 46 46 45 39 39 39 42 46 47 47 48 46 45 42 33 36 31 27 31 32 32 30 29 27 30 33 31 29 29 36 40 35 33 33 34 35 37
58 58 58 58 58 57 47 41 40 42 37 42 42 42 43 42 41 45 49 41 35 29 34 30 26 33 35 34 32 29 21 21 30 33 31 27 28 35 34 32 34 35 36 35 37
58 57 57 57 57 48 42 40 45 43 34 40 41 40 41 43 38 40 44 38 30 25 24 27 32 36 35 32 29 27 23 20 26 29 28 24 25 31 35 36 36 36 36 35 36
57 57 56 58 51 44 40 43 44 42 27 36 39 41 43 41 37 44 43 39 34 27 28 28 33 34 31 30 31 22 30 30 26 19 15 25 15 27 29 30 34 36 34 34 35
56 56 56 56 46 42 42 43 42 40 20 36 38 46 43 39 37 39 42 39 33 28 27 28 30 30 26 32 33 28 30 27 22 14 13 15 11 25 28 31 32 34 35 34 34
55 54 55 49 43 40 42 41 40 29 19 28 36 35 34 37 37 39 38 40 36 32 31 27 32 31 31 32 32 31 24 21 16 8 7 7 11 20 27 30 31 33 34 35 34
53 52 49 46 41 41 40 38 27 19 31 28 29 34 30 30 34 33 33 31 27 21 16 25 26 31 33 28 30 26 13 9 10 7 12 1 11 22 28 30 31 33 33 33 32
53 50 46 43 40 40 39 30 18 19 19 32 32 32 28 30 29 29 30 25 28 25 12 12 18 21 32 28 21 20 15 10 5 7 11 3 9 25 29 31 31 31 30 31 31
53 43 40 41 42 41 36 20 23 23 33 31 32 23 23 29 26 23 23 23 27 24 19 12 17 28 30 30 26 20 13 20 4 -5 1 8 14 26 29 21 27 28 29 30 32
46 43 38 40 40 40 29 25 24 32 34 33 25 27 16 18 24 20 23 29 29 29 25 21 14 20 26 29 26 19 23 13 8 5 2 7 1 19 20 20 18 25 22 25 27
46 37 40 40 41 36 27 25 28 35 34 31 28 21 26 20 22 18 24 29 28 26 28 19 15 17 26 17 17 18 14 12 12 13 6 1 14 16 18 18 20 21 23 21 22
40 29 39 40 32 32 32 32 35 32 33 32 31 31 24 23 23 15 23 27 30 26 24 27 20 11 17 24 27 23 17 20 15 9 5 10 15 17 18 9 7 19 24 25 20
37 37 38 39 29 21 32 29 34 32 30 29 27 33 29 27 21 26 26 31 31 29 25 28 14 7 18 20 23 17 22 22 17 18 7 8 19 17 8 11 18 15 23 26 20
35 30 31 33 35 33 30 28 33 32 31 34 33 32 28 24 28 27 27 31 31 31 37 34 23 16 16 17 13 14 19 22 20 9 15 17 24 31 32 31 28 24 22 20 18
37 31 31 29 31 33 34 33 27 29 32 32 26 30 27 26 23 21 27 28 30 34 31 30 14 18 17 17 13 17 16 20 17 18 16 25 17 27 32 32 31 21 25 23 21
35 31 34 32 31 29 32 30 30 33 33 29 23 29 29 24 28 25 27 28 27 26 27 27 16 10 8 21 21 15 20 21 21 21 18 22 21 31 32 30 24 21 20 20 20
33 37 37 34 31 30 31 29 30 32 35 38 32 29 28 30 33 34 33 32 32 26 25 22 14 9 9 12 10 12 16 21 14 12 19 11 22 9 23 18 17 22 16 19 20